Overview Statistics Trail Chart Weather Telemetry Raw packets
 

This is the latest recevied weather packets stored in our database for station/object OE6JUE. If no packets are shown the sender has not sent any weather packets the latest 10 day(s).

<< 39 40 41 42 43 44 45 >>
Time Temp. Humidity Pressure Rain* Wind** Luminosity Snow
1788420681 21.67° C 70% 1023.1 hPa 0 mm - - -
1788420381 22.22° C 72% 1023.2 hPa 0 mm - - -
1788420081 21.67° C 74% 1023 hPa 0 mm - - -
1788419781 20.56° C 76% 1023.1 hPa 0 mm - - -
1788419481 20° C 77% 1023.2 hPa 0 mm - - -
1788419181 20° C 77% 1023.2 hPa 0 mm - - -
1788418881 19.44° C 75% 1023.3 hPa 0 mm - - -
1788418581 20° C 75% 1023.4 hPa 0 mm - - -
1788418281 20° C 75% 1023.3 hPa 0 mm - - -
1788417981 20° C 75% 1023.2 hPa 0 mm - - -
1788417681 20° C 75% 1023.2 hPa 0 mm - - -
1788417381 20° C 76% 1023.1 hPa 0 mm - - -
1788417081 20° C 76% 1023 hPa 0 mm - - -
1788416781 20° C 76% 1023 hPa 0 mm - - -
1788416481 20.56° C 80% 1023 hPa 0 mm - - -
1788416181 20.56° C 83% 1023.1 hPa 0 mm - - -
1788415881 17.78° C 83% 1023.1 hPa 0 mm - - -
1788415581 17.78° C 83% 1023.1 hPa 0 mm - - -
1788415128 17.78° C 87% 1022.9 hPa 0 mm - - -
1788414829 17.78° C 89% 1022.8 hPa 0 mm - - -
1788414528 17.78° C 89% 1022.8 hPa 0 mm - - -
1788414228 16.67° C 92% 1022.7 hPa 0 mm - - -
1788413928 16.67° C 92% 1022.7 hPa 0 mm - - -
1788413628 16.67° C 92% 1022.7 hPa 0 mm - - -
1788413329 16.67° C 92% 1022.7 hPa 0 mm - - -

* Rain latest hour (hover to see other rain measurements)
** Current wind speed in m/s (hover to see current wind gust speed)